Terminal Aerodrome Forecast
Issued by NWS

Home | Current Version | Previous Version | Text Only | Print | Product List | Glossary On
Versions: 1 2 3 4 5 6 7 8 9 10 11 12 13 14 15 16 17 18 19 20 21 22 23 24 25 26 27 28
000
FTUS44 KSJT 210300 AAA
TAFBBD
TAF AMD
KBBD 210328Z 2103/2124 16007KT 5SM BR OVC006
     FM211400 18012KT P6SM BKN015
     FM211700 21010KT P6SM SCT020=

USA.gov is the U.S. government's official web portal to all federal, state and local government web resources and services.